This is the latest recevied weather packets stored in our database for station/object K5NAN. If no packets are shown the sender has not sent any weather packets the latest 10 day(s).
| Time | Temp. | Humidity | Pressure | Rain* | Wind** | Luminosity | Snow |
|---|---|---|---|---|---|---|---|
| 1777841548 | 26.67° C | 33% | 1016.2 hPa | 0 mm | - | 646 W/m² | - |
| 1777841244 | 26.67° C | 35% | 1016.3 hPa | 0 mm | - | 667 W/m² | - |
| 1777840942 | 26.67° C | 37% | 1016.4 hPa | 0 mm | - | 672 W/m² | - |
| 1777840639 | 26.67° C | 36% | 1016.4 hPa | 0 mm | - | 702 W/m² | - |
| 1777840337 | 26.67° C | 36% | 1016.4 hPa | 0 mm | - | 709 W/m² | - |
| 1777840034 | 26.11° C | 34% | 1016.6 hPa | 0 mm | - | 727 W/m² | - |
| 1777839732 | 26.67° C | 35% | 1016.7 hPa | 0 mm | - | 727 W/m² | - |
| 1777839429 | 26.67° C | 37% | 1016.8 hPa | 0 mm | - | 740 W/m² | - |
| 1777839127 | 26.11° C | 39% | 1016.8 hPa | 0 mm | - | 743 W/m² | - |
| 1777838823 | 26.67° C | 38% | 1017 hPa | 0 mm | - | 756 W/m² | - |
| 1777838519 | 26.11° C | 37% | 1016.9 hPa | 0 mm | - | 765 W/m² | - |
| 1777838216 | 26.11° C | 37% | 1017.1 hPa | 0 mm | - | 780 W/m² | - |
| 1777837913 | 26.11° C | 38% | 1017.1 hPa | 0 mm | - | 794 W/m² | - |
| 1777837610 | 26.11° C | 37% | 1017.1 hPa | 0 mm | - | 802 W/m² | - |
| 1777837305 | 26.11° C | 37% | 1017.2 hPa | 0 mm | - | 799 W/m² | - |
| 1777837003 | 26.11° C | 41% | 1017.4 hPa | 0 mm | - | 752 W/m² | - |
| 1777836698 | 26.11° C | 36% | 1017.6 hPa | 0 mm | - | 812 W/m² | - |
| 1777836394 | 26.11° C | 38% | 1017.3 hPa | 0 mm | - | 832 W/m² | - |
| 1777836090 | 26.11° C | 41% | 1017.5 hPa | 0 mm | - | 844 W/m² | - |
| 1777835787 | 26.11° C | 40% | 1017.5 hPa | 0 mm | - | 843 W/m² | - |
| 1777835484 | 25.56° C | 41% | 1017.6 hPa | 0 mm | - | 683 W/m² | - |
| 1777835181 | 26.11° C | 39% | 1017.7 hPa | 0 mm | - | 839 W/m² | - |
| 1777834878 | 25.56° C | 42% | 1017.6 hPa | 0 mm | - | 835 W/m² | - |
| 1777834574 | 25.56° C | 40% | 1017.7 hPa | 0 mm | - | 836 W/m² | - |
| 1777834274 | 25.56° C | 39% | 1017.8 hPa | 0 mm | - | 828 W/m² | - |
* Rain latest hour (hover to see other rain measurements)
** Current wind speed in m/s (hover to see current wind gust speed)